www.pogodaiklimat.ru

Погода и климат >> Архив погоды >> Монголия >> Тариат


ПОГОДА в Тариате

  • Прогноз погоды в Тариате
  • Монитор погоды в Тариате

АРХИВ ПОГОДЫ в Тариате

Время (UTC), дата Ветер
(напр.,м/с)
 
Видим.   Явления Облачность Т
(С)
Тd
(С)
f
(%)
Тe
(С)
Тes
(С)
Комфортность P
(гПа)
Po
(гПа)
Тmin
(С)
Tmax
(С)
R
(мм)
R24
(мм)
S
(см)
09 12.06 В 1 50 км 5/3 600 м
[Cu med, cong Ci]
+19.7 -5.2 18 +21 +28 комфорт 1008.4 793.8
12 12.06 ЮВ 1 50 км 9/9 600 м
[Sc]
+17.8 +0.3 31 +19 +19 1010.2 794.0 +20.4
15 12.06 В 1 50 км 3/0
[Ac lent Ci fib]
+13.0 +3.1 51 +13 +13 1014.7 794.3
18 12.06 В 2 50 км 4/0
[Ac cast]
+10.1 +3.5 64 +9 +9 1017.6 794.6
21 12.06 В 1 50 км 9/9 600 м
[Sc]
+9.5 +3.6 67 +9 +9 1017.6 794.1
00 13.06 ЮВ 1 50 км 9/9 600 м
[Sc]
+11.3 +4.1 61 +11 +12 1016.2 794.3 +9.0
03 13.06 ЮЗ 1 50 км 9/3 600 м
[Cu hum Ac und]
+17.3 +3.9 41 +18 +23 1010.0 793.6
06 13.06 З 3 50 км 9/6 600 м
[Sc As trans]
+18.0 +3.3 38 +18 +21 1008.5 792.8
09 13.06 З 3 50 км 9/9 600 м
[Frnb]
+20.2 +3.4 33 +21 +22 комфорт 1004.7 791.3
12 13.06 ЮЗ 4 50 км 9/6 600 м
[Frnb As trans Cs]
+18.6 +4.9 40 +19 +19 1005.8 791.0 +21.2
15 13.06 ЮЗ 2 50 км 9/9 600 м
[Sc]
+15.2 +7.0 58 +15 +15 1009.2 791.5
18 13.06 штиль 0 50 км 9/9 600 м
[Sc]
+13.3 +8.6 73 +13 +13 1010.4 791.1
21 13.06 В 3 50 км {дождь} 9/4 600 м
[Sc As trans]
+10.8 +10.1 95 +9 +9 1008.9 788.2
00 14.06 В 2 50 км {дождь} 9/6 600 м
[Cu Sc Ac lent]
+12.8 +7.9 72 +12 +13 1006.4 787.6 +10.8 0.3
03 14.06 ЮВ 1 50 км 9/9 600 м
[Sc]
+14.6 +5.3 54 +15 +17 1005.1 787.8
06 14.06 ЮВ 1 50 км 9/6 600 м
[Sc As trans]
+14.2 +4.4 52 +15 +19 1005.0 787.5
09 14.06 Ю 1 10 км слаб. дождь 10/10 600 м
[Sc]
+10.7 +8.2 85 +10 +10 1008.0 787.4
12 14.06 В 1 50 км в посл. час дождь 9/4 600 м
[Sc As trans]
+10.3 +8.0 86 +10 +10 1007.3 786.7 +14.9 3
15 14.06 штиль 0 50 км 9/9 600 м
[Sc]
+9.2 +9.5 100 +8 +8 1008.4 786.8
18 14.06 штиль 0 50 км 9/9 600 м
[Sc]
+8.7 +9.3 100 +8 +8 1007.5 785.7
21 14.06 З 3 10 км дождь 10/10 600 м
[Sc]
+7.4 +8.0 100 +4 +4 1008.3 785.4
00 15.06 ЮЗ 3 50 км в посл. час дождь 9/9 600 м
[Frnb]
+8.0 +7.9 99 +5 +5 1007.5 785.2 +7.2 4
03 15.06 ЮЗ 5 50 км 9/6 600 м
[Sc As trans]
+11.9 +5.0 63 +10 +11 1002.9 784.2
06 15.06 ЮЗ 5 50 км 8/5 600 м
[Cb calv Ac lent]
+14.7 +4.2 49 +13 +16 998.9 783.0
09 15.06 СЗ 7 50 км 9/9 600 м
[Sc]
+12.3 +5.9 65 +10 +10 1001.5 783.5
12 15.06 З 5 50 км в посл. час дождь 9/6 600 м
[Sc As trans]
+10.0 +6.9 81 +7 +7 1004.4 784.2 +16.0 0.3
15 15.06 З 2 50 км 9/9 600 м
[Sc]
+9.6 +6.1 79 +8 +8 1005.3 784.6
18 15.06 СЗ 2 н/о {дождь} 10/10 600 м
[Sc]
+8.1 +7.1 93 +6 +6 1006.3 784.3
21 15.06 З 3 50 км в посл. час дождь 9/5 600 м
[Sc As trans]
+8.1 +7.9 99 +5 +5 1006.3 784.3
00 16.06 ЮЗ 1 4000 м туман {дождь} 9/9 600 м
[Frnb]
+9.1 +8.1 93 +8 +9 1006.3 785.0 +7.8 1
03 16.06 ЮЗ 1 20 км осадки на расстоянии 9/9 600 м
[Sc]
+9.7 +8.3 91 +9 +11 1007.3 786.2
06 16.06 ЮВ 1 50 км {дождь, туман} 9/8 600 м
[Sc diur, vesp As trans Ci]
+13.3 +6.9 65 +14 +17 1003.9 786.0
09 16.06 штиль 0 20 км слаб. ливневой дождь 9/9 600 м
[Cb calv]
+10.2 +8.6 90 +9 +11 1007.5 786.8
12 16.06 ЮВ 1 50 км {ливн. осадки} 8/4 600 м
[Cu med, cong Ac trans Ci]
+12.6 +6.9 68 +13 +13 1006.1 787.3 +15.1 6
15 16.06 штиль 0 50 км 8/3 600 м
[Sc Ac cast]
+10.4 +8.9 90 +10 +10 1010.1 788.8
18 16.06 Ю 1 50 км 4/0
[Ac lent]
+7.7 +8.5 100 +7 +7 1012.5 788.9
21 16.06 штиль 0 50 км 3/0
[Ac lent]
+6.4 +7.6 100 +5 +5 1013.9 789.1
00 17.06 З 3 50 км 1/0
[Ci]
+9.3 +6.8 84 +7 +10 1012.2 789.7 +5.2
03 17.06 ЮЗ 3 50 км 3/3 600 м
[Cu hum]
+15.1 +6.7 57 +15 +23 1006.9 789.7
06 17.06 З 4 50 км 6/6 1000 м
[Cu med, cong]
+19.8 +5.8 40 +21 +25 комфорт 1002.6 789.3
09 17.06 З 3 50 км 6/5 1000 м
[Cb calv Ci]
+21.7 +4.2 32 +22 +26 комфорт 1000.1 788.5
12 17.06 С 1 50 км в посл. час гроза {ливн. осадки} туман 9/9 600 м
[Cb cap]
+15.1 +10.3 73 +16 +16 1007.1 789.9 +22.2 2
15 17.06 С 3 50 км {гроза, ливн. осадки} 8/8 600 м
[Cb calv]
+12.0 +6.6 70 +11 +11 1014.4 793.4
18 17.06 штиль 0 50 км {гроза, ливн. осадки} 1/0
[Ci]
+8.1 +7.8 98 +7 +7 1018.0 793.5
21 17.06 штиль 0 50 км ясно +6.7 +7.3 100 +6 +6 1019.7 793.8
00 18.06 З 2 50 км ясно +9.4 +7.3 87 +8 +11 1018.1 794.5 +6.0 1
03 18.06 ЮЗ 1 50 км 3/3 1000 м
[Cu med, cong]
+15.2 +7.3 59 +16 +27 1013.1 794.6
06 18.06 ЮВ 1 50 км 3/3 600 м
[Cu med, cong]
+18.9 +2.8 34 +20 +35 опасность
простуды
1008.8 793.5
09 18.06 СВ 3 50 км 4/3 600 м
[Cb calv Ci fib]
+19.4 +3.4 35 +20 +25 1007.0 792.5
12 18.06 В 3 50 км 9/3 600 м
[Cu med, cong Cs]
+19.3 +4.3 37 +20 +20 1007.5 792.9 +21.9
15 18.06 СВ 3 50 км 4/0
[Ac cast]
+15.2 +7.4 60 +15 +15 1012.6 794.1
18 18.06 В 1 50 км 3/0
[Ac trans Ci]
+10.8 +7.1 78 +11 +11 1015.9 793.7
21 18.06 В 1 50 км 6/0
[Cc]
+8.5 +6.3 86 +8 +8 1017.8 793.6
00 19.06 штиль 0 50 км 5/0
[Ac cast Ci]
+12.5 +7.4 71 +12 +16 1015.1 794.3 +7.7
03 19.06 СВ 1 50 км 4/0
[Ac cast Ci]
+19.7 +7.4 45 +22 +34 комфорт 1008.3 793.6
06 19.06 В 3 50 км 9/5 600 м
[Cb calv Ac lent Ci]
+21.8 +9.3 45 +23 +28 комфорт 1004.7 792.4

 

Местоположение метеостанции Тариат (Монголия): широта 48.08 долгота 99.55 высота над уровнем моря 2041 м.

В архиве по умолчанию представлена погода в Тариате за последнюю неделю. Архивные данные за месяц целиком и за предыдущие месяцы, начиная с января 2011 года, Вы можете получить, выбрав интересующий диапазон дат из раскрывающегося списка и нажав кнопку "Ввод!".


*Определитесь, кто Вы:
робот инопланетянин человек

Внимание! Время в таблицах - всемирное. Для получения местного времени необходимо прибавить поправку, которая равна 8 ч.

Смотрите также архив погоды в соседних городах и на ближайших метеорологических станциях:

Погода в Тосонцэнгэле (Монголия) (123 км)
Погода в Эрдэнэмандале (Монголия) (144 км)
Погода в Цэцэрлэге (Монголия) (159 км)
Погода в Галууте (Монголия) (160 км)
Погода в Баянбулаге (Монголия) (178 км)
Погода в Мурэне (Монголия) (178 км)
Погода в Улиастае (Монголия) (205 км)
Погода в Баянхонгоре (Монголия) (233 км)
Погода ву Тариалане (Монголия) (244 км)
Погода в Хатгале (Монголия) (265 км)

Пояснения к столбцам:

Ветер - указаны скорость ветра в м/с - средняя за 10 мин, порывы в срок и между сроками (в фигурных скобках) и направление, откуда дует ветер: С - северный, СВ - северо-восточный, В - восточный, ЮВ - юго-восточный, Ю - южный, ЮЗ - юго-западный, З - западный, СЗ - северо-западный.
Видимость - горизонтальная дальность видимости в метрах или километрах. При видимости от 1 до 10 км при отсутствии осадков обычно наблюдается дымка, при ухудшении видимости до 1 км и менее - туман. В сухую погоду видимость может ухудшаться дымом, пылью или мглою.
Явления - указаны атмосферные явления, наблюдавшиеся в срок или в последний час перед сроком; фигурными скобками обозначены явления, наблюдавшиеся между сроками (за 1-3 часа до срока); квадратными скобками обозначены град или гололедные отложения с указанием их диаметра в мм.
Облачность - указаны через наклонную черту общая и нижняя облачность в баллах и высота нижней границы облаков в метрах; квадратными скобками обозначены формы облаков: Ci - перистые, Cs - перисто-слоистые, Cc - перисто-кучевые, Ac - высококучевые, As - высокослоистые, Sc - слоисто-кучевые, Ns - слоисто-дождевые, Cu - кучевые, Cb - кучево-дождевые. Подробнее классификацию облаков см. в Атласе облаков (PDF).
T - Температура воздуха - температура, измеренная на высоте 2 м над землей.
Td - Температура точки росы - температура, при понижении до которой содержащийся в воздухе водяной пар достигнет насыщения.
f - Относительная влажность воздуха - влажноcть воздуха, измеренная на высоте 2 м над землей.
Te - Эффективная температура - температура, которую ощущает одетый по сезону человек в тени. Характеристика душности погоды. При расчете учитывается влияние влажности воздуха и скорости ветра на теплоощущения человека.
Tes - Эффективная температура на солнце - температура, которую ощущает человек, с поправкой на солнечный нагрев. Характеристика знойности погоды. Зависит от высоты солнца над горизонтом, облачности и скорости ветра. Ночью, в пасмурную погоду, а также при ветре 12 м/с и более поправка равна нулю.
P - Атмосферное давление - приведенное к уровню моря атмосферное давление.
Po - Атмосферное давление - измеренное на уровне метеостанции атмосферное давление.
Tmin - Минимальная температура - минимум температуры воздуха на высоте 2 м над землей.
Tmax - Максимальная температура - максимум температуры воздуха на высоте 2 м над землей.
R - Количество осадков - Количество выпавших осадков за период времени, мм. При наведении курсора мыши на число - период времени, за который выпало указанное количество осадков.
R24 - Количество осадков - Количество выпавших осадков за 24 часа, мм.
S - Снежный покров - Высота снежного покрова, см. При наведении курсора мыши на число - состояние снежного покрова и степень покрытия местности в баллах.